Location: Theydon Bois
(51.6750°N, 0.1050°E)
Time: 02:26:47
(UTC+00:00)

ISS - Visible Passes

Search period start: 17 November 2018 00:00
Search period end: 27 November 2018 00:00
Orbit: 402 x 408 km, 51.6° (Epoch: 17 November)

Date Brightness Start Highest point End Pass type
(mag) Time Alt. Az. Time Alt. Az. Time Alt. Az.
25 Nov -1.5 18:15:46 10° SSW 18:16:57 16° S 18:16:57 16° S visible
26 Nov -1.6 17:24:38 10° S 17:26:19 13° SE 17:27:02 13° SE visible
26 Nov -0.9 18:59:04 10° SW 18:59:42 15° SW 18:59:42 15° SW visible
